User: anonymous   Login
Location: Aulus
(42.7909°N, 1.3399°E)
Time: 12:14:10
(UTC+00:00)
Language:

DELTA 2 R/B (1) - Orbit

View from above orbital plane
View from above orbital plane
View from above satellite
View from above satellite

Ground track
Ground track

The orbit data is extracted from the following two-line orbital elements,

1 27665U 03005C   25188.85576321  .00000099  00000-0  71386-4 0  9992
2 27665  39.5744 241.1039 0009034 321.5212 206.5289 14.29404818171745
Epoch (UTC): 07 July 2025 20:32:17
Eccentricity: 0.0009034
inclination: 39.5744°
perigee height: 787 km
apogee height: 800 km
right ascension of ascending node: 241.1039°
argument of perigee: 321.5212°
revolutions per day: 14.29404818
mean anomaly at epoch: 206.5289°
orbit number at epoch: 17174

The dashed part of the orbit path shows where the satellite is in the earth's shadow,  

DLR